Weather in Cherven

Belarus     53˚42′51″N   28˚25′05″E
temp.,
°C
wind,
m/s
gust,
m/s
humid.,
%
clouds,
%
prec.,
mm/h
press.,
hPa
HPBL,
m
28 november, sat
sat2800:00+1˚w479779 0.6 1014405
03:00w249689 0.9 1014232
06:00−1˚n249596 0.3 1015267
09:00−2˚n229672 0.3 101661
12:00−1˚ne128420 0.0 1018338
15:00ene238027 0.0 1018455
18:00−1˚ne249547 0.0 1018133
21:00+1˚e369773 0.2 1019287
29 november, sun
sun2900:00+1˚e479799 0.1 1020456
03:00ene5897100 0.3 1020434
06:00ne4798100 1.3 1019437
09:00−1˚nne3698100 2.3 1019344
12:00se239698 0.6 1020218
15:00+1˚se239796 0.6 1020225
18:00sse359588 0.1 1020188
21:00−1˚sse239689 0.1 102145
30 november, mon
mon3000:00−1˚sse1299100 0.4 102284
03:00−1˚sw1199100 1.3 102238
06:00−2˚sw239894 0.8 102287
09:00−4˚s239786 0.9 102447
12:00−2˚ssw249460 0.0 1024241
15:00−1˚ssw249256 0.0 1024311
18:00−1˚sw358887 0.1 1025387
21:00−2˚sw359093 0.1 1026424
1 december, tue
tue100:00−2˚ssw2593100 0.1 1026246
03:00−2˚ssw2493100 0.1 1027187
06:00−2˚sw249493 0.1 1027162
09:00−4˚sw239576 0.1 102842
12:00−2˚ssw23910 0.0 1029184
15:00−2˚ssw12910 0.0 1029129
18:00−4˚sse12920 0.0 102921
21:00−4˚sse229413 0.0 103022
2 december, wed
wed200:00−4˚sse129434 0.0 103121
03:00−5˚se129333 0.0 103121
06:00−5˚ese12922 0.0 103021
09:00−5˚ese22922 0.0 103021
12:00−3˚e128610 0.0 1030115
15:00−3˚e118821 0.0 102840
18:00−5˚e129018 0.0 102821
21:00−5˚se229530 0.0 102821